Location: East Irvine
(33.6759°N, 117.7598°W)
Time: 00:47:16
(UTC+00:00)

Daily predictions for brighter satellites

Satellite Brightness Start Highest point End
(mag) Time Altitude Azimuth Time Altitude Azimuth Time Altitude Azimuth
Cosmos 2195 Rocket 4.5 03:21:53 10° S 03:27:57 73° E 03:34:05 10° N
Cosmos 1766 4.4 03:27:23 10° NNE 03:30:27 24° ENE 03:33:30 10° SE
Sich 1 4.5 03:28:22 10° NNW 03:32:25 40° W 03:36:25 10° SSW
Cosmos 1666 Rocket 3.7 03:28:27 10° N 03:32:43 53° E 03:36:58 10° SSE
COSMOS 2406 3.2 03:29:57 10° SSW 03:35:41 76° ESE 03:41:25 10° NNE
NOSS 3-4 (A) 4.1 03:30:05 10° NNW 03:37:26 90° ENE 03:45:48 10° SSE
NOSS 3-4 (C) 4.1 03:30:08 10° NNW 03:37:28 89° ENE 03:45:46 10° SSE
CSL-04 Debris 4.3 03:33:30 10° SSE 03:38:49 60° ENE 03:44:07 10° N
SPOT 1/Viking Rocket 3.8 03:34:23 10° S 03:39:28 71° WSW 03:44:36 10° NNW
Cosmos 1092 Rocket 4.0 03:33:24 10° S 03:39:41 75° E 03:46:02 10° N
Cosmos 1980 Rocket 2.6 03:34:39 10° N 03:40:08 47° ENE 03:45:32 10° SE
FALCON 9 R/B 3.2 03:38:52 10° WSW 03:42:05 29° SSW 03:49:12 10° SE
Resurs 01 Rocket 1.6 03:47:34 10° SSE 03:51:58 83° ENE 03:56:23 10° N
OAO 1 Rocket 4.5 03:47:54 10° W 03:53:14 73° SSW 03:58:03 13° ESE
USA 234 3.2 03:48:33 10° NE 03:55:04 70° SE 04:01:33 10° SW
Terra 3.9 03:55:28 10° E 03:57:23 12° ENE 03:59:19 10° NE
Lacrosse 5 rocket 3.4 03:57:59 10° WNW 04:01:05 20° WSW 04:04:06 10° SSW
Cosmos 1470 3.8 03:59:11 10° NNE 04:02:19 26° ENE 04:04:12 17° ESE
IRIDIUM 103 4.4 03:59:02 10° N 04:04:10 57° E 04:09:14 10° SSE
CZ-4 R/B 3.2 04:01:14 10° SSW 04:04:38 28° W 04:08:07 10° NW
Cosmos 2026 Rocket 4.4 03:58:33 10° SSW 04:04:42 66° W 04:10:47 10° N
KORONAS-FOTON 3.6 04:03:20 10° S 04:07:01 69° E 04:10:43 10° NNE
CZ-4B R/B 3.8 04:06:51 10° S 04:11:59 53° W 04:17:11 10° NNW
Cosmos 1842 3.0 04:09:07 10° S 04:12:45 88° W 04:16:25 10° N
IRIDIUM 106 4.3 04:17:14 10° N 04:22:29 88° E 04:27:28 11° S
IRS-1C Rocket 4.5 04:26:32 23° SE 04:29:30 47° ENE 04:34:31 10° N
In-Cosmos 22 4.2 04:25:09 12° S 04:30:20 61° E 04:35:48 10° NNE
Cosmos 540 Rocket 3.6 04:26:11 10° N 04:31:16 60° ENE 04:34:01 26° SE
Cosmos 2360 Rocket 4.3 04:28:39 10° NNE 04:31:20 13° NE 04:34:00 10° E
Cosmos 1707 3.3 04:34:02 10° SSW 04:37:32 51° W 04:41:04 10° N
Cosmos 968 Rocket 4.3 04:37:09 27° ESE 04:38:05 29° E 04:42:28 10° NE
Okean-O 2.7 04:36:10 21° S 04:39:03 74° WSW 04:43:28 10° NNW
Cosmos 1741 Rocket 4.3 04:38:46 25° SSE 04:41:29 46° ESE 04:46:30 10° NNE
SL-16 R/B 3.1 04:37:38 10° N 04:42:48 35° ENE 04:45:05 25° ESE
SeaSat 1 3.3 04:42:03 26° ESE 04:44:02 36° ENE 04:48:30 10° N
Cosmos 2333 Rocket 4.1 04:41:17 10° NNE 04:44:48 16° NE 04:47:07 13° E
Cosmos 2369 4.1 04:41:09 10° NNW 04:46:47 59° WSW 04:50:32 21° S
USA 245 3.6 04:47:48 38° E 04:48:03 39° ENE 04:51:42 10° N
CZ-4C R/B 4.4 04:44:29 10° N 04:48:28 47° WNW 04:52:23 10° SSW
Atlas Centaur 2 3.0 04:43:00 10° W 04:51:05 70° S 04:56:31 24° ESE
Tiangong -1.8 04:51:31 10° NW 04:54:38 54° NNE 04:54:54 52° NE
SPOT 5 2.6 04:53:26 33° S 04:55:17 74° WSW 04:59:38 10° NNW
Cosmos 2228 Rocket 3.5 04:55:59 42° ESE 04:56:39 45° E 05:01:00 10° NNE
Cosmos 381 Rocket 4.4 04:51:56 10° NNW 04:58:18 86° ENE 05:01:22 33° SSE
Okean O Rocket 3.8 04:55:56 10° SW 04:59:15 21° W 05:02:34 10° NW
ASTRO E2 3.8 04:56:47 10° WSW 04:58:37 26° SW 04:58:37 26° SW
IRS-1A Rocket 4.1 04:57:29 32° SSE 05:00:09 89° E 05:05:41 10° NNW
MetOp-B 4.3 04:57:49 27° S 05:00:45 71° WSW 05:06:06 10° NNW
Cosmos 1356 Rocket 3.6 05:01:42 49° ESE 05:01:51 49° E 05:05:54 10° NNE
SL-08 ROCKET BODY 4.4 04:58:26 22° S 05:02:37 87° E 05:08:43 10° N
Cosmos 1400 Rocket 2.9 05:03:49 37° SSW 05:05:12 68° W 05:09:04 10° N
Cosmos 1869 Rocket 3.5 05:01:49 10° N 05:06:17 88° E 05:07:23 51° S
ERS-1 Rocket 2.9 05:10:39 44° S 05:12:18 85° WSW 05:17:21 10° NNW
ATLAS CENTAUR R/B 2.0 05:11:14 16° SW 05:13:44 44° WNW 05:17:06 10° NNE
Meteor 1-12 Rocket 4.5 05:08:08 10° N 05:14:05 61° E 05:15:46 44° SE
S3M 3.9 05:10:25 10° N 05:16:48 89° E 05:19:23 38° S
Cosmos 1300 3.6 05:14:46 10° N 05:17:15 34° NE 05:17:15 34° NE
Cosmos 1441 Rocket 4.1 05:15:55 10° NNW 05:19:18 38° W 05:19:50 36° WSW
Cosmos 2266 Rocket 4.4 05:15:24 16° SSW 05:20:24 61° W 05:26:43 10° N
Cosmos 841 Rocket 3.4 05:15:46 10° NNW 05:21:02 74° ENE 05:22:02 57° SE
Meteor 1-22 Rocket 4.2 05:16:23 10° N 05:22:09 85° W 05:24:08 44° S
Cosmos 1655 Rocket 4.0 05:19:20 31° S 05:22:36 87° W 05:29:02 10° N
Cosmos 1980 Rocket 4.3 05:19:48 10° WNW 05:23:39 19° W 05:27:28 10° SW
Spot 2 Rocket 3.4 05:22:35 56° SSE 05:23:41 90° E 05:28:47 10° NNW
Cosmos 2322 Rocket 2.5 05:20:14 10° N 05:25:45 50° ENE 05:26:46 45° E
Aureole 3 4.1 05:27:56 41° NE 05:27:56 41° NE 05:31:10 10° NNE
Cosmos 1862 Rocket 3.4 05:32:16 85° NE 05:32:16 85° NE 05:36:36 10° N
Terra 2.2 05:33:36 49° SW 05:34:26 56° W 05:39:04 10° NNW
Meteor 2-10 Rocket 3.5 05:31:12 10° N 05:36:43 84° W 05:37:35 63° S
Cosmos 2278 4.1 05:32:01 10° NNW 05:37:36 56° WSW 05:38:58 45° SSW
Meteor 1-21 4.3 05:36:20 46° SSW 05:38:07 81° W 05:43:57 10° N
Landsat 5 3.6 05:38:25 10° N 05:42:09 70° NNW 05:42:09 70° NNW
Okean 3 3.8 05:44:40 60° N 05:44:40 60° N 05:48:07 10° N
Ariane Rocket 3.4 05:47:41 49° SW 05:48:26 54° W 05:53:25 10° NNW
Cosmos 2219 Rocket 3.3 05:46:11 10° N 05:51:12 31° ENE 05:51:37 31° ENE
SJ 16-02 1.8 05:53:27 58° NW 05:53:27 58° NW 05:57:27 10° N
Cosmos 1346 Rocket 4.0 05:58:36 10° NNW 06:01:14 38° NW 06:01:14 38° NW
COSMOS 2455 4.0 06:07:48 30° ENE 06:07:48 30° ENE 06:11:19 10° NE
ARIANE 5 R/B 4.2 06:08:40 26° NE 06:08:40 26° NE 06:11:13 10° N
RESURS DK-1 3.7 06:04:03 10° NW 06:06:46 35° WNW 06:06:46 35° WNW
CZ-4C R/B 4.1 06:13:09 14° NE 06:13:09 14° NE 06:13:54 10° NE
SL-08 R/B 4.3 06:10:00 79° ESE 06:10:12 80° E 06:16:18 10° N
Cosmos 2360 Rocket 2.2 06:10:15 10° NNW 06:15:45 76° W 06:15:45 76° W
Cosmos 1733 Rocket 4.4 06:16:25 10° NNW 06:19:50 33° WNW 06:19:50 33° WNW
SeaSat 1 4.1 06:21:45 23° WSW 06:21:45 23° WSW 06:25:23 10° NW
Okean 1-7 4.3 06:24:32 39° NW 06:24:32 39° NW 06:27:41 10° N
ATLAS 2AS CENTAUR R/B 2.4 06:17:48 10° NNW 06:24:33 83° ENE 06:24:53 80° ESE
SL-16 R/B 3.6 06:22:03 10° NW 06:26:39 26° WSW 06:26:57 26° WSW
Cosmos 2333 Rocket 2.4 06:23:49 10° NNW 06:29:07 63° W 06:29:07 63° W
GP-B 4.4 06:28:00 10° N 06:30:43 37° N 06:30:43 37° N
USA 281 3.3 06:32:33 58° E 06:33:01 59° ENE 06:39:28 10° NNW
Atlas Centaur 2 3.5 06:32:22 10° W 06:38:43 43° SW 06:38:43 43° SW
Cosmos 2227 Rocket 4.2 06:52:28 17° ENE 06:52:28 17° ENE 06:54:13 10° NE
Cosmos 2237 Rocket 4.2 06:46:52 10° NNE 06:50:29 17° ENE 06:51:07 17° ENE
Cosmos 1745 Rocket 4.0 06:53:20 75° WNW 06:53:20 75° WNW 06:59:29 10° N
Cosmos 2322 4.2 06:47:40 10° NNW 06:52:24 53° NNE 06:52:24 53° NNE
Cosmos 2322 Rocket 4.2 07:05:36 10° WNW 07:08:34 17° W 07:08:34 17° W
Cosmos 839 Rocket 4.4 07:03:22 10° NW 07:08:45 54° WNW 07:08:45 54° WNW
Nadezhda 1 Rocket 4.2 07:03:27 10° N 07:09:03 65° NW 07:09:03 65° NW
Cosmos 2297 Rocket 3.0 07:11:25 46° NE 07:11:25 46° NE 07:15:20 10° NNE
CENTAUR R/B 3.8 07:20:44 26° ENE 07:20:44 26° ENE 07:23:51 10° NE
ATLAS 2A CENTAUR R/B 4.3 06:46:31 10° WSW 07:21:40 61° S 07:22:17 61° S
Meteor 2-5 Rocket 4.2 07:24:15 60° N 07:24:15 60° N 07:28:59 10° N
COSMOS 2428 3.5 07:29:04 10° NNW 07:33:09 48° NW 07:33:09 48° NW
Cosmos 2219 Rocket 3.8 07:30:08 10° NW 07:33:19 25° WNW 07:33:19 25° WNW
Cosmos 2263 Rocket 4.1 07:45:28 19° ENE 07:45:28 19° ENE 07:47:41 10° NE
COSMOS 2455 4.2 07:50:52 28° WNW 07:51:45 30° NW 07:56:58 10° N
NOSS 0 Rocket 4.3 07:49:03 10° NNW 07:54:00 58° NW 07:54:00 58° NW
CZ-4C R/B 3.8 07:58:11 22° NW 07:58:11 22° NW 08:02:04 10° N
NOSS 3-2 (A) 4.4 08:06:19 33° NE 08:06:19 33° NE 08:09:33 10° NE
Cosmos 2184 Rocket 4.2 08:07:26 69° N 08:07:26 69° N 08:12:58 10° N
SL-12 R/B(2) 4.0 08:08:53 79° SW 08:09:29 86° WNW 08:18:35 10° NNE
SL-4 R/B 4.5 08:18:00 10° NNW 08:19:46 21° N 08:19:46 21° N
Cosmos 2154 Rocket 4.2 08:24:17 68° NNW 08:24:17 68° NNW 08:29:44 10° N
SL-16 R/B 3.5 08:22:42 10° N 08:27:45 32° ENE 08:28:24 31° ENE
H-2A R/B 4.3 08:26:17 10° N 08:28:00 20° NNW 08:28:00 20° NNW
Cosmos 2082 4.4 08:32:57 48° NE 08:32:57 48° NE 08:37:08 10° NNE
Cosmos 2227 Rocket 3.2 08:34:15 38° NW 08:34:15 38° NW 08:38:54 10° N
Cosmos 2237 Rocket 3.2 08:29:21 10° NNW 08:32:55 38° NW 08:32:55 38° NW
IDEFIX/ARIANE 42P 4.4 08:34:53 10° NE 08:38:13 22° E 08:38:13 22° E
CZ-2D R/B 4.0 08:45:20 10° NE 08:48:55 20° E 08:48:55 20° E
Cosmos 2297 Rocket 4.4 08:53:11 13° WNW 08:54:18 14° NW 08:57:02 10° NNW
Cosmos 2219 3.9 08:57:02 46° NW 08:57:02 46° NW 09:01:47 10° N
NPP 4.5 09:01:30 10° NNE 09:06:15 42° E 09:06:15 42° E
CENTAUR R/B 3.7 09:07:50 27° WNW 09:08:54 28° NW 09:14:29 10° NNE
Cosmos 2341 Rocket 3.8 09:12:42 86° NW 09:12:42 86° NW 09:18:50 10° N
ADEOS II 3.8 09:10:37 10° NE 09:14:42 23° E 09:15:11 22° ESE
USA 238 DEB 3.9 09:16:15 47° ESE 09:16:15 47° ESE 09:22:17 10° NE
USA 238 4.0 09:16:17 46° ESE 09:16:17 46° ESE 09:22:19 10° NE
MOZ.5/SAFIR/RUBIN 5/SL-8 4.5 09:18:28 51° NE 09:18:28 51° NE 09:22:21 10° N
Cosmos 1937 Rocket 3.8 09:18:39 61° NNW 09:18:39 61° NNW 09:23:07 10° NNE
Cosmos 1898 Rocket 4.3 09:22:24 42° NW 09:22:24 42° NW 09:26:34 10° N
Cosmos 864 Rocket 4.3 09:22:44 83° S 09:23:01 90° E 09:29:22 10° N
Meteor 2-1 Rocket 4.2 09:19:07 10° N 09:25:01 84° E 09:25:02 84° E
Cosmos 2263 Rocket 3.1 09:27:08 37° WNW 09:27:08 37° WNW 09:32:07 10° N
Resurs 1-4 Rocket 2.5 09:23:16 10° NNE 09:28:25 53° E 09:28:25 53° E
Cosmos 1821 Rocket 3.9 09:44:40 62° SSE 09:45:41 76° E 09:51:48 10° N
Cosmos 1437 Rocket 3.9 09:47:29 41° NE 09:47:29 41° NE 09:50:15 10° NNE
Cosmos 1844 Rocket 3.0 09:45:59 52° SE 09:46:32 55° ESE 09:51:58 10° NNE
Cosmos 2218 Rocket 4.1 09:48:21 55° W 09:48:46 56° W 09:54:53 10° N
ALOS 3.8 09:46:52 10° NE 09:50:43 26° E 09:51:43 24° ESE
Cosmos 2366 rocket 4.3 09:55:01 46° W 09:55:31 47° W 10:01:32 10° N
Cosmos 1544 Rocket 4.2 09:51:44 10° NNW 09:55:05 48° NW 09:55:05 48° NW
Cosmos 2228 3.3 09:54:55 10° N 09:58:31 61° NNW 09:58:31 61° NNW
Cosmos 1680 Rocket 3.4 09:54:38 10° NNW 09:59:51 89° ENE 10:00:26 71° SSE
NOSS 3-2 (C) 4.0 10:00:08 34° WNW 10:00:55 36° NW 10:06:14 10° NNE
Cosmos 2112 Rocket 4.0 09:56:58 10° NNW 10:02:10 78° ENE 10:03:19 54° SE
Cosmos 1818 3.7 09:57:07 10° NNW 10:02:36 74° ENE 10:05:15 31° SE
MSX 3.9 10:02:08 10° N 10:07:44 57° WNW 10:08:36 51° WSW
COSMOS 2441 4.2 10:03:16 10° N 10:08:05 83° WNW 10:08:25 76° SW
USA 267 3.2 10:02:44 10° NE 10:09:17 82° SE 10:11:21 48° SSW
SL-16 R/B 3.5 10:06:52 10° NW 10:10:12 26° WNW 10:10:12 26° WNW
IDEFIX/ARIANE 42P 3.4 10:13:45 10° N 10:18:27 35° WNW 10:18:57 34° W
SL-16 R/B 3.2 10:13:30 10° SSE 10:19:33 54° ENE 10:25:36 10° N
CZ-2C R/B 2.5 10:18:44 57° SSW 10:19:36 67° WSW 10:24:55 10° NNW
SEDSat Delta rocket 3.5 10:20:59 42° ESE 10:20:59 42° ESE 10:23:58 10° E
Cosmos 1934 Rocket 4.3 10:20:51 28° SSE 10:24:17 64° E 10:30:34 10° NNE
CZ-2C R/B 3.2 10:19:49 10° N 10:24:59 54° WNW 10:25:53 48° WSW
Cosmos 1943 3.0 10:20:57 10° NNW 10:26:34 81° WSW 10:29:23 31° SSE
CZ-2D R/B 2.7 10:24:17 10° N 10:29:15 41° WNW 10:30:12 37° W
Cosmos 1606 Rocket 3.6 10:27:14 10° N 10:31:41 75° E 10:33:15 39° SSE
Cosmos 921 Rocket 3.5 10:27:51 10° N 10:31:58 54° ENE 10:34:31 21° SE
Mugunghwa Rocket 4.3 10:30:41 40° SSW 10:32:02 45° S 10:38:03 10° ESE
FENGYUN 3A 3.7 10:27:36 10° N 10:32:54 62° WNW 10:34:26 43° SW
ASTEX 1 3.3 10:31:48 37° S 10:33:44 85° E 10:38:37 10° N
Envisat 4.1 10:30:30 10° NNE 10:35:12 38° E 10:38:38 17° SSE
Iridium 2 4.4 10:40:08 31° NNE 10:40:08 31° NNE 10:41:35 10° N
Cosmos 1125 Rocket 3.5 10:38:11 37° S 10:40:18 80° ESE 10:45:36 10° NNE
CZ-2C R/B 4.0 10:41:13 10° NE 10:45:06 27° E 10:49:01 10° SSE
Cosmos 1726 Rocket 3.5 10:42:42 10° N 10:47:08 82° E 10:49:33 26° S
Cosmos 1812 3.6 10:43:48 10° N 10:47:13 42° E 10:49:37 17° SSE
Cosmos 2058 3.0 10:48:11 34° SSE 10:49:50 69° E 10:53:52 10° NNE
Cosmos 494 Rocket 3.9 10:47:00 10° NNW 10:52:15 82° WSW 10:57:06 12° SSE
Cosmos 1727 Rocket 4.5 10:46:33 10° NNW 10:52:28 43° W 10:55:03 29° SW
ADEOS II 2.9 10:49:35 10° N 10:54:19 36° WNW 10:56:03 28° WSW
SAR-Lupe-4 3.5 10:52:34 10° N 10:56:05 64° WNW 10:56:48 49° SW
YAOGAN 6 4.4 10:55:38 10° NE 10:58:14 23° E 11:00:36 11° SSE
Cosmos 1844 4.5 10:57:17 27° WSW 10:59:41 39° WNW 11:05:04 10° N
IRAS Rocket 4.2 10:54:33 10° N 11:00:01 73° WNW 11:03:12 26° SSW
USA 81 4.0 11:00:09 10° N 11:05:26 90° WSW 11:10:23 12° S
Resurs 1-4 Rocket 3.9 11:04:30 10° NNW 11:07:43 16° WNW 11:09:29 14° W
ATLAS 5 CENTAUR R/B 1.4 11:06:36 30° S 11:07:51 49° ESE 11:11:05 10° NE
UNK 3.6 11:03:41 11° SSE 11:08:09 86° W 11:12:45 10° NNW
GOES 2 Rocket 4.3 11:08:49 22° S 11:08:49 22° S 11:11:56 10° SE
Iridium 4 Rocket 3.3 11:04:32 10° N 11:09:07 80° E 11:14:06 10° S
Meteor 1-28 Rocket 3.8 11:10:01 31° WSW 11:10:12 32° W 11:13:24 10° NNW
Timation 2 Rocket 4.2 11:08:51 23° SW 11:13:03 62° WNW 11:19:28 10° NNE
Cosmos 1544 2.0 11:13:19 53° SSW 11:13:48 74° W 11:16:24 10° N
NOSS 2-2 (E) 3.5 11:12:35 23° S 11:14:32 50° ESE 11:17:39 10° NE
Delta 2 Rocket 3.2 11:18:27 12° WNW 11:22:11 87° SSW 11:26:37 10° ESE
Cosmos 2058 Rocket 3.0 11:21:11 10° NNW 11:25:35 70° W 11:29:55 10° S
Thor Agena Rocket 4.2 11:20:29 10° NNE 11:25:41 57° E 11:30:49 10° S
Cosmos 1758 Rocket 4.1 11:22:03 10° S 11:26:24 58° E 11:30:43 10° NNE
ALOS 3.5 11:24:02 10° NNW 11:27:46 25° WNW 11:30:00 17° WSW
NOAA 11 4.2 11:23:08 10° N 11:28:36 71° WNW 11:33:30 13° SSW
Cosmos 1844 Rocket 4.4 11:27:38 12° W 11:30:44 18° WNW 11:34:26 10° NNW
NOSS 2-3 (D) 3.2 11:29:15 18° SSW 11:31:54 76° ESE 11:35:37 10° NE
Cosmos 2298 Rocket 4.2 11:29:42 17° SSW 11:33:46 59° WNW 11:39:02 10° N
METEOR-M 4.4 11:30:05 10° N 11:35:17 54° WNW 11:39:52 13° SSW
Cosmos 1500 4.3 11:38:23 10° SSE 11:41:35 38° E 11:44:48 10° NNE
USA 276 4.3 11:41:33 10° S 11:43:27 16° SE 11:45:19 10° E
Cosmos 1607 4.0 11:39:31 10° NW 11:45:46 62° WSW 11:51:53 10° SSE
Cosmos 1605 Rocket 4.4 11:41:46 11° SSW 11:47:22 44° W 11:53:12 10° N
Cosmos 1626 Rocket 3.9 11:44:00 11° SSW 11:48:02 47° W 11:52:19 10° N
NOSS 2-2 (C) 4.0 11:46:58 14° WSW 11:49:22 29° WNW 11:52:09 10° N
Cosmos 2278 Rocket 3.0 11:47:25 10° S 11:52:51 50° ESE 11:58:19 10° NNE
Cosmos 1862 3.3 11:49:50 10° S 11:53:37 80° E 11:57:26 10° N
